Simultaneous Nadir Overpasses (SNOs) Predictions

Prediction of SNOs between GOES-16 and METOP-C Satellite Orbit:

Table of predicted SNOs for the next 14.0 days since TLE Epoch: 7/27/2021
Index Date Time (GOES-16) GOES-16 Lat,Lon METOP-C Lat,Lon Distance(km) Time Diff (sec)
1 07/27/2021 02:33:48 0.02, -75.19 0.00, -75.28 10.93 80
2 07/29/2021 14:29:19 -0.02, -75.22 -0.10, -74.85 41.35 80
3 07/31/2021 02:50:58 0.01, -75.19 -0.95, -79.44 483.84 80
4 08/01/2021 02:27:38 0.02, -75.20 0.19, -74.45 85.51 80
5 08/02/2021 14:49:09 0.00, -75.23 0.85, -79.01 430.42 80
6 08/03/2021 14:25:50 -0.01, -75.24 -0.29, -74.02 139.26 80
7 08/05/2021 02:47:28 -0.01, -75.22 -0.75, -78.61 385.19 80
8 08/06/2021 02:24:09 0.01, -75.23 0.39, -73.62 184.48 80
9 08/07/2021 14:45:40 0.01, -75.27 0.64, -78.18 330.95 80
10 08/08/2021 14:22:21 -0.01, -75.28 -0.50, -73.19 239.18 80
